owner,sensor,date,latitude,longitude,vertical_datum,sea_water_temperature,qcFlag 
WAVCIS,ioos:station:WAVCIS:CSI16:1,2011-12-01T00:00:00Z,29.4012,-89.0355,10.0,20.16,11111222 
WAVCIS,ioos:station:WAVCIS:CSI16:1,2011-12-01T00:15:00Z,29.4012,-89.0355,10.0,20.215,11111222 
WAVCIS,ioos:station:WAVCIS:CSI16:1,2011-12-01T00:30:00Z,29.4012,-89.0355,10.0,20.379,11111222 
WAVCIS,ioos:station:WAVCIS:CSI16:1,2011-12-01T00:45:00Z,29.4012,-89.0355,10.0,20.393,11111222 
WAVCIS,ioos:station:WAVCIS:CSI16:1,2011-12-01T01:00:00Z,29.4012,-89.0355,10.0,20.507,11111222 
WAVCIS,ioos:station:WAVCIS:CSI16:1,2011-12-01T01:15:00Z,29.4012,-89.0355,10.0,20.638,11111222 
WAVCIS,ioos:station:WAVCIS:CSI16:1,2011-12-01T01:30:00Z,29.4012,-89.0355,10.0,20.76,11111222 
WAVCIS,ioos:station:WAVCIS:CSI16:1,2011-12-01T01:45:00Z,29.4012,-89.0355,10.0,20.726,11111222 
WAVCIS,ioos:station:WAVCIS:CSI16:1,2011-12-01T02:00:00Z,29.4012,-89.0355,10.0,20.726,11111222 
WAVCIS,ioos:station:WAVCIS:CSI16:1,2011-12-01T02:15:00Z,29.4012,-89.0355,10.0,20.885,11111222 
WAVCIS,ioos:station:WAVCIS:CSI16:1,2011-12-01T02:30:00Z,29.4012,-89.0355,10.0,20.854,11111222 
WAVCIS,ioos:station:WAVCIS:CSI16:1,2011-12-01T02:45:00Z,29.4012,-89.0355,10.0,20.801,11111222 
WAVCIS,ioos:station:WAVCIS:CSI16:1,2011-12-01T03:00:00Z,29.4012,-89.0355,10.0,20.8,11111222 
WAVCIS,ioos:station:WAVCIS:CSI16:1,2011-12-01T03:15:00Z,29.4012,-89.0355,10.0,20.739,11111222 
WAVCIS,ioos:station:WAVCIS:CSI16:1,2011-12-01T03:30:00Z,29.4012,-89.0355,10.0,20.719,11111222 
WAVCIS,ioos:station:WAVCIS:CSI16:1,2011-12-01T03:45:00Z,29.4012,-89.0355,10.0,20.673,11111222 
WAVCIS,ioos:station:WAVCIS:CSI16:1,2011-12-01T04:00:00Z,29.4012,-89.0355,10.0,20.681,11111222 
WAVCIS,ioos:station:WAVCIS:CSI16:1,2011-12-01T04:15:00Z,29.4012,-89.0355,10.0,20.786,11111222 
WAVCIS,ioos:station:WAVCIS:CSI16:1,2011-12-01T04:30:00Z,29.4012,-89.0355,10.0,20.802,11111222 
WAVCIS,ioos:station:WAVCIS:CSI16:1,2011-12-01T04:45:00Z,29.4012,-89.0355,10.0,20.756,11111222 
WAVCIS,ioos:station:WAVCIS:CSI16:1,2011-12-01T05:00:00Z,29.4012,-89.0355,10.0,20.752,11111222 
WAVCIS,ioos:station:WAVCIS:CSI16:1,2011-12-01T05:15:00Z,29.4012,-89.0355,10.0,20.696,11111222 
WAVCIS,ioos:station:WAVCIS:CSI16:1,2011-12-01T05:30:00Z,29.4012,-89.0355,10.0,20.662,11111222 
WAVCIS,ioos:station:WAVCIS:CSI16:1,2011-12-01T05:45:00Z,29.4012,-89.0355,10.0,20.622,11111222 
WAVCIS,ioos:station:WAVCIS:CSI16:1,2011-12-01T06:00:00Z,29.4012,-89.0355,10.0,20.598,11111222 
WAVCIS,ioos:station:WAVCIS:CSI16:1,2011-12-01T06:15:00Z,29.4012,-89.0355,10.0,20.511,11111222 
WAVCIS,ioos:station:WAVCIS:CSI16:1,2011-12-01T06:30:00Z,29.4012,-89.0355,10.0,20.509,11111222 
WAVCIS,ioos:station:WAVCIS:CSI16:1,2011-12-01T06:45:00Z,29.4012,-89.0355,10.0,20.523,11111222 
WAVCIS,ioos:station:WAVCIS:CSI16:1,2011-12-01T07:00:00Z,29.4012,-89.0355,10.0,20.489,11111222 
WAVCIS,ioos:station:WAVCIS:CSI16:1,2011-12-01T07:15:00Z,29.4012,-89.0355,10.0,20.482,11111222 
WAVCIS,ioos:station:WAVCIS:CSI16:1,2011-12-01T07:30:00Z,29.4012,-89.0355,10.0,20.439,11111222 
WAVCIS,ioos:station:WAVCIS:CSI16:1,2011-12-01T07:45:00Z,29.4012,-89.0355,10.0,20.465,11111222 
WAVCIS,ioos:station:WAVCIS:CSI16:1,2011-12-01T08:00:00Z,29.4012,-89.0355,10.0,20.453,11111222 
WAVCIS,ioos:station:WAVCIS:CSI16:1,2011-12-01T08:15:00Z,29.4012,-89.0355,10.0,20.476,11111222 
WAVCIS,ioos:station:WAVCIS:CSI16:1,2011-12-01T08:30:00Z,29.4012,-89.0355,10.0,19.749,11111222 
WAVCIS,ioos:station:WAVCIS:CSI16:1,2011-12-01T08:45:00Z,29.4012,-89.0355,10.0,19.786,11111222 
WAVCIS,ioos:station:WAVCIS:CSI16:1,2011-12-01T09:00:00Z,29.4012,-89.0355,10.0,19.713,11111222 
WAVCIS,ioos:station:WAVCIS:CSI16:1,2011-12-01T09:15:00Z,29.4012,-89.0355,10.0,19.524,11111222 
WAVCIS,ioos:station:WAVCIS:CSI16:1,2011-12-01T09:30:00Z,29.4012,-89.0355,10.0,19.549,11111222 
WAVCIS,ioos:station:WAVCIS:CSI16:1,2011-12-01T09:45:00Z,29.4012,-89.0355,10.0,19.553,11111222 
WAVCIS,ioos:station:WAVCIS:CSI16:1,2011-12-01T10:00:00Z,29.4012,-89.0355,10.0,19.529,11111222 
WAVCIS,ioos:station:WAVCIS:CSI16:1,2011-12-01T10:15:00Z,29.4012,-89.0355,10.0,19.908,11111222 
WAVCIS,ioos:station:WAVCIS:CSI16:1,2011-12-01T10:30:00Z,29.4012,-89.0355,10.0,19.61,11111222 
WAVCIS,ioos:station:WAVCIS:CSI16:1,2011-12-01T10:45:00Z,29.4012,-89.0355,10.0,19.561,11111222 
WAVCIS,ioos:station:WAVCIS:CSI16:1,2011-12-01T11:00:00Z,29.4012,-89.0355,10.0,19.558,11111222 
WAVCIS,ioos:station:WAVCIS:CSI16:1,2011-12-01T11:15:00Z,29.4012,-89.0355,10.0,19.559,11111222 
WAVCIS,ioos:station:WAVCIS:CSI16:1,2011-12-01T11:30:00Z,29.4012,-89.0355,10.0,19.956,11111222 
WAVCIS,ioos:station:WAVCIS:CSI16:1,2011-12-01T11:45:00Z,29.4012,-89.0355,10.0,20.16,11111222 
WAVCIS,ioos:station:WAVCIS:CSI16:1,2011-12-01T12:00:00Z,29.4012,-89.0355,10.0,20.455,11111222 
WAVCIS,ioos:station:WAVCIS:CSI16:1,2011-12-01T12:15:00Z,29.4012,-89.0355,10.0,20.566,11111222 
WAVCIS,ioos:station:WAVCIS:CSI16:1,2011-12-01T12:30:00Z,29.4012,-89.0355,10.0,20.508,11111222 
WAVCIS,ioos:station:WAVCIS:CSI16:1,2011-12-01T12:45:00Z,29.4012,-89.0355,10.0,20.421,11111222 
WAVCIS,ioos:station:WAVCIS:CSI16:1,2011-12-01T13:00:00Z,29.4012,-89.0355,10.0,19.819,11111222 
WAVCIS,ioos:station:WAVCIS:CSI16:1,2011-12-01T13:15:00Z,29.4012,-89.0355,10.0,19.703,11111222 
WAVCIS,ioos:station:WAVCIS:CSI16:1,2011-12-01T13:30:00Z,29.4012,-89.0355,10.0,19.561,11111222 
WAVCIS,ioos:station:WAVCIS:CSI16:1,2011-12-01T13:45:00Z,29.4012,-89.0355,10.0,19.518,11111222 
WAVCIS,ioos:station:WAVCIS:CSI16:1,2011-12-01T14:00:00Z,29.4012,-89.0355,10.0,19.56,11111222 
WAVCIS,ioos:station:WAVCIS:CSI16:1,2011-12-01T14:15:00Z,29.4012,-89.0355,10.0,19.501,11111222 
WAVCIS,ioos:station:WAVCIS:CSI16:1,2011-12-01T14:30:00Z,29.4012,-89.0355,10.0,19.447,11111222 
WAVCIS,ioos:station:WAVCIS:CSI16:1,2011-12-01T14:45:00Z,29.4012,-89.0355,10.0,19.454,11111222 
WAVCIS,ioos:station:WAVCIS:CSI16:1,2011-12-01T15:00:00Z,29.4012,-89.0355,10.0,19.491,11111222 
WAVCIS,ioos:station:WAVCIS:CSI16:1,2011-12-01T15:15:00Z,29.4012,-89.0355,10.0,19.538,11111222 
WAVCIS,ioos:station:WAVCIS:CSI16:1,2011-12-01T15:30:00Z,29.4012,-89.0355,10.0,19.57,11111222 
WAVCIS,ioos:station:WAVCIS:CSI16:1,2011-12-01T15:45:00Z,29.4012,-89.0355,10.0,19.606,11111222 
WAVCIS,ioos:station:WAVCIS:CSI16:1,2011-12-01T16:00:00Z,29.4012,-89.0355,10.0,19.547,11111222 
WAVCIS,ioos:station:WAVCIS:CSI16:1,2011-12-01T16:15:00Z,29.4012,-89.0355,10.0,19.574,11111222 
WAVCIS,ioos:station:WAVCIS:CSI16:1,2011-12-01T16:30:00Z,29.4012,-89.0355,10.0,19.582,11111222 
WAVCIS,ioos:station:WAVCIS:CSI16:1,2011-12-01T16:45:00Z,29.4012,-89.0355,10.0,19.599,11111222 
WAVCIS,ioos:station:WAVCIS:CSI16:1,2011-12-01T17:00:00Z,29.4012,-89.0355,10.0,19.628,11111222 
WAVCIS,ioos:station:WAVCIS:CSI16:1,2011-12-01T17:15:00Z,29.4012,-89.0355,10.0,19.674,11111222 
WAVCIS,ioos:station:WAVCIS:CSI16:1,2011-12-01T17:30:00Z,29.4012,-89.0355,10.0,19.721,11111222 
WAVCIS,ioos:station:WAVCIS:CSI16:1,2011-12-01T17:45:00Z,29.4012,-89.0355,10.0,19.659,11111222 
WAVCIS,ioos:station:WAVCIS:CSI16:1,2011-12-01T18:00:00Z,29.4012,-89.0355,10.0,19.799,11111222 
WAVCIS,ioos:station:WAVCIS:CSI16:1,2011-12-01T18:15:00Z,29.4012,-89.0355,10.0,19.828,11111222 
WAVCIS,ioos:station:WAVCIS:CSI16:1,2011-12-01T18:30:00Z,29.4012,-89.0355,10.0,19.861,11111222 
WAVCIS,ioos:station:WAVCIS:CSI16:1,2011-12-01T18:45:00Z,29.4012,-89.0355,10.0,19.891,11111222 
WAVCIS,ioos:station:WAVCIS:CSI16:1,2011-12-01T19:00:00Z,29.4012,-89.0355,10.0,19.914,11111222 
WAVCIS,ioos:station:WAVCIS:CSI16:1,2011-12-01T19:15:00Z,29.4012,-89.0355,10.0,19.925,11111222 
WAVCIS,ioos:station:WAVCIS:CSI16:1,2011-12-01T19:30:00Z,29.4012,-89.0355,10.0,19.944,11111222 
WAVCIS,ioos:station:WAVCIS:CSI16:1,2011-12-01T19:45:00Z,29.4012,-89.0355,10.0,19.972,11111222 
WAVCIS,ioos:station:WAVCIS:CSI16:1,2011-12-01T20:00:00Z,29.4012,-89.0355,10.0,20.007,11111222 
WAVCIS,ioos:station:WAVCIS:CSI16:1,2011-12-01T20:15:00Z,29.4012,-89.0355,10.0,20.015,11111222 
WAVCIS,ioos:station:WAVCIS:CSI16:1,2011-12-01T20:30:00Z,29.4012,-89.0355,10.0,20.04,11111222 
WAVCIS,ioos:station:WAVCIS:CSI16:1,2011-12-01T20:45:00Z,29.4012,-89.0355,10.0,20.055,11111222 
WAVCIS,ioos:station:WAVCIS:CSI16:1,2011-12-01T21:00:00Z,29.4012,-89.0355,10.0,19.747,11111222 
WAVCIS,ioos:station:WAVCIS:CSI16:1,2011-12-01T21:15:00Z,29.4012,-89.0355,10.0,20.087,11111222 
WAVCIS,ioos:station:WAVCIS:CSI16:1,2011-12-01T21:30:00Z,29.4012,-89.0355,10.0,20.066,11111222 
WAVCIS,ioos:station:WAVCIS:CSI16:1,2011-12-01T21:45:00Z,29.4012,-89.0355,10.0,20.055,11111222 
WAVCIS,ioos:station:WAVCIS:CSI16:1,2011-12-01T22:00:00Z,29.4012,-89.0355,10.0,20.066,11111222 
WAVCIS,ioos:station:WAVCIS:CSI16:1,2011-12-01T22:15:00Z,29.4012,-89.0355,10.0,20.086,11111222 
WAVCIS,ioos:station:WAVCIS:CSI16:1,2011-12-01T22:30:00Z,29.4012,-89.0355,10.0,20.073,11111222 
WAVCIS,ioos:station:WAVCIS:CSI16:1,2011-12-01T22:45:00Z,29.4012,-89.0355,10.0,20.107,11111222 
WAVCIS,ioos:station:WAVCIS:CSI16:1,2011-12-01T23:00:00Z,29.4012,-89.0355,10.0,20.113,11111222 
WAVCIS,ioos:station:WAVCIS:CSI16:1,2011-12-01T23:15:00Z,29.4012,-89.0355,10.0,20.109,11111222 
WAVCIS,ioos:station:WAVCIS:CSI16:1,2011-12-01T23:30:00Z,29.4012,-89.0355,10.0,20.106,11111222 
WAVCIS,ioos:station:WAVCIS:CSI16:1,2011-12-01T23:45:00Z,29.4012,-89.0355,10.0,20.063,11111222 
WAVCIS,ioos:station:WAVCIS:CSI16:1,2011-12-02T00:00:00Z,29.4012,-89.0355,10.0,20.073,11111222 
WAVCIS,ioos:station:WAVCIS:CSI16:1,2011-12-02T00:15:00Z,29.4012,-89.0355,10.0,20.083,11111222 
WAVCIS,ioos:station:WAVCIS:CSI16:1,2011-12-02T00:30:00Z,29.4012,-89.0355,10.0,20.077,11111222 
WAVCIS,ioos:station:WAVCIS:CSI16:1,2011-12-02T00:45:00Z,29.4012,-89.0355,10.0,20.056,11111222 
WAVCIS,ioos:station:WAVCIS:CSI16:1,2011-12-02T01:00:00Z,29.4012,-89.0355,10.0,20.055,11111222 
WAVCIS,ioos:station:WAVCIS:CSI16:1,2011-12-02T01:15:00Z,29.4012,-89.0355,10.0,20.025,11111222 
WAVCIS,ioos:station:WAVCIS:CSI16:1,2011-12-02T01:30:00Z,29.4012,-89.0355,10.0,20.038,11111222 
WAVCIS,ioos:station:WAVCIS:CSI16:1,2011-12-02T01:45:00Z,29.4012,-89.0355,10.0,19.967,11111222 
WAVCIS,ioos:station:WAVCIS:CSI16:1,2011-12-02T02:00:00Z,29.4012,-89.0355,10.0,19.968,11111222 
WAVCIS,ioos:station:WAVCIS:CSI16:1,2011-12-02T02:15:00Z,29.4012,-89.0355,10.0,19.966,11111222 
WAVCIS,ioos:station:WAVCIS:CSI16:1,2011-12-02T02:30:00Z,29.4012,-89.0355,10.0,19.97,11111222 
WAVCIS,ioos:station:WAVCIS:CSI16:1,2011-12-02T02:45:00Z,29.4012,-89.0355,10.0,19.991,11111222 
WAVCIS,ioos:station:WAVCIS:CSI16:1,2011-12-02T03:00:00Z,29.4012,-89.0355,10.0,19.992,11111222 
WAVCIS,ioos:station:WAVCIS:CSI16:1,2011-12-02T03:15:00Z,29.4012,-89.0355,10.0,19.926,11111222 
WAVCIS,ioos:station:WAVCIS:CSI16:1,2011-12-02T03:30:00Z,29.4012,-89.0355,10.0,19.952,11111222 
WAVCIS,ioos:station:WAVCIS:CSI16:1,2011-12-02T03:45:00Z,29.4012,-89.0355,10.0,19.884,11111222 
WAVCIS,ioos:station:WAVCIS:CSI16:1,2011-12-02T04:00:00Z,29.4012,-89.0355,10.0,19.855,11111222 
WAVCIS,ioos:station:WAVCIS:CSI16:1,2011-12-02T04:15:00Z,29.4012,-89.0355,10.0,19.842,11111222 
WAVCIS,ioos:station:WAVCIS:CSI16:1,2011-12-02T04:30:00Z,29.4012,-89.0355,10.0,19.8,11111222 
WAVCIS,ioos:station:WAVCIS:CSI16:1,2011-12-02T04:45:00Z,29.4012,-89.0355,10.0,19.794,11111222 
WAVCIS,ioos:station:WAVCIS:CSI16:1,2011-12-02T05:00:00Z,29.4012,-89.0355,10.0,19.763,11111222 
WAVCIS,ioos:station:WAVCIS:CSI16:1,2011-12-02T05:15:00Z,29.4012,-89.0355,10.0,19.763,11111222 
WAVCIS,ioos:station:WAVCIS:CSI16:1,2011-12-02T05:30:00Z,29.4012,-89.0355,10.0,19.737,11111222 
WAVCIS,ioos:station:WAVCIS:CSI16:1,2011-12-02T05:45:00Z,29.4012,-89.0355,10.0,19.74,11111222 
WAVCIS,ioos:station:WAVCIS:CSI16:1,2011-12-02T06:00:00Z,29.4012,-89.0355,10.0,19.715,11111222 
WAVCIS,ioos:station:WAVCIS:CSI16:1,2011-12-02T06:15:00Z,29.4012,-89.0355,10.0,19.783,11111222 
WAVCIS,ioos:station:WAVCIS:CSI16:1,2011-12-02T06:30:00Z,29.4012,-89.0355,10.0,19.698,11111222 
WAVCIS,ioos:station:WAVCIS:CSI16:1,2011-12-02T06:45:00Z,29.4012,-89.0355,10.0,19.69,11111222 
WAVCIS,ioos:station:WAVCIS:CSI16:1,2011-12-02T07:00:00Z,29.4012,-89.0355,10.0,19.691,11111222 
WAVCIS,ioos:station:WAVCIS:CSI16:1,2011-12-02T07:15:00Z,29.4012,-89.0355,10.0,19.676,11111222 
WAVCIS,ioos:station:WAVCIS:CSI16:1,2011-12-02T07:30:00Z,29.4012,-89.0355,10.0,19.672,11111222 
WAVCIS,ioos:station:WAVCIS:CSI16:1,2011-12-02T07:45:00Z,29.4012,-89.0355,10.0,19.642,11111222 
WAVCIS,ioos:station:WAVCIS:CSI16:1,2011-12-02T08:00:00Z,29.4012,-89.0355,10.0,19.637,11111222 
WAVCIS,ioos:station:WAVCIS:CSI16:1,2011-12-02T08:15:00Z,29.4012,-89.0355,10.0,19.613,11111222 
WAVCIS,ioos:station:WAVCIS:CSI16:1,2011-12-02T08:30:00Z,29.4012,-89.0355,10.0,19.615,11111222 
WAVCIS,ioos:station:WAVCIS:CSI16:1,2011-12-02T08:45:00Z,29.4012,-89.0355,10.0,19.6,11111222 
WAVCIS,ioos:station:WAVCIS:CSI16:1,2011-12-02T09:00:00Z,29.4012,-89.0355,10.0,19.568,11111222 
WAVCIS,ioos:station:WAVCIS:CSI16:1,2011-12-02T09:15:00Z,29.4012,-89.0355,10.0,19.566,11111222 
WAVCIS,ioos:station:WAVCIS:CSI16:1,2011-12-02T09:30:00Z,29.4012,-89.0355,10.0,19.564,11111222 
WAVCIS,ioos:station:WAVCIS:CSI16:1,2011-12-02T09:45:00Z,29.4012,-89.0355,10.0,19.558,11111222 
WAVCIS,ioos:station:WAVCIS:CSI16:1,2011-12-02T10:00:00Z,29.4012,-89.0355,10.0,19.56,11111222 
WAVCIS,ioos:station:WAVCIS:CSI16:1,2011-12-02T10:15:00Z,29.4012,-89.0355,10.0,19.563,11111222 
WAVCIS,ioos:station:WAVCIS:CSI16:1,2011-12-02T10:30:00Z,29.4012,-89.0355,10.0,19.54,11111222 
WAVCIS,ioos:station:WAVCIS:CSI16:1,2011-12-02T10:45:00Z,29.4012,-89.0355,10.0,19.537,11111222 
WAVCIS,ioos:station:WAVCIS:CSI16:1,2011-12-02T11:00:00Z,29.4012,-89.0355,10.0,19.524,11111222 
WAVCIS,ioos:station:WAVCIS:CSI16:1,2011-12-02T11:15:00Z,29.4012,-89.0355,10.0,19.532,11111222 
WAVCIS,ioos:station:WAVCIS:CSI16:1,2011-12-02T11:30:00Z,29.4012,-89.0355,10.0,19.53,11111222 
WAVCIS,ioos:station:WAVCIS:CSI16:1,2011-12-02T11:45:00Z,29.4012,-89.0355,10.0,19.542,11111222 
WAVCIS,ioos:station:WAVCIS:CSI16:1,2011-12-02T12:00:00Z,29.4012,-89.0355,10.0,19.538,11111222 
WAVCIS,ioos:station:WAVCIS:CSI16:1,2011-12-02T12:15:00Z,29.4012,-89.0355,10.0,19.527,11111222 
WAVCIS,ioos:station:WAVCIS:CSI16:1,2011-12-02T12:30:00Z,29.4012,-89.0355,10.0,19.508,11111222 
WAVCIS,ioos:station:WAVCIS:CSI16:1,2011-12-02T12:45:00Z,29.4012,-89.0355,10.0,19.526,11111222 
WAVCIS,ioos:station:WAVCIS:CSI16:1,2011-12-02T13:00:00Z,29.4012,-89.0355,10.0,19.517,11111222 
WAVCIS,ioos:station:WAVCIS:CSI16:1,2011-12-02T13:15:00Z,29.4012,-89.0355,10.0,19.604,11111222 
WAVCIS,ioos:station:WAVCIS:CSI16:1,2011-12-02T13:30:00Z,29.4012,-89.0355,10.0,19.545,11111222 
WAVCIS,ioos:station:WAVCIS:CSI16:1,2011-12-02T13:45:00Z,29.4012,-89.0355,10.0,19.535,11111222 
WAVCIS,ioos:station:WAVCIS:CSI16:1,2011-12-02T14:00:00Z,29.4012,-89.0355,10.0,19.536,11111222 
WAVCIS,ioos:station:WAVCIS:CSI16:1,2011-12-02T14:15:00Z,29.4012,-89.0355,10.0,19.546,11111222 
WAVCIS,ioos:station:WAVCIS:CSI16:1,2011-12-02T14:30:00Z,29.4012,-89.0355,10.0,19.605,11111222 
WAVCIS,ioos:station:WAVCIS:CSI16:1,2011-12-02T14:45:00Z,29.4012,-89.0355,10.0,19.578,11111222 
WAVCIS,ioos:station:WAVCIS:CSI16:1,2011-12-02T15:00:00Z,29.4012,-89.0355,10.0,17.153,11111222 
WAVCIS,ioos:station:WAVCIS:CSI16:1,2011-12-02T15:15:00Z,29.4012,-89.0355,10.0,17.456,11111222 
WAVCIS,ioos:station:WAVCIS:CSI16:1,2011-12-02T15:30:00Z,29.4012,-89.0355,10.0,16.031,11111222 
WAVCIS,ioos:station:WAVCIS:CSI16:1,2011-12-02T15:45:00Z,29.4012,-89.0355,10.0,17.695,11111222 
WAVCIS,ioos:station:WAVCIS:CSI16:1,2011-12-02T16:00:00Z,29.4012,-89.0355,10.0,18.284,11111222 
WAVCIS,ioos:station:WAVCIS:CSI16:1,2011-12-02T16:15:00Z,29.4012,-89.0355,10.0,18.907,11111222 
WAVCIS,ioos:station:WAVCIS:CSI16:1,2011-12-02T16:30:00Z,29.4012,-89.0355,10.0,18.772,11111222 
WAVCIS,ioos:station:WAVCIS:CSI16:1,2011-12-02T16:45:00Z,29.4012,-89.0355,10.0,19.343,11111222 
WAVCIS,ioos:station:WAVCIS:CSI16:1,2011-12-02T17:00:00Z,29.4012,-89.0355,10.0,19.465,11111222 
WAVCIS,ioos:station:WAVCIS:CSI16:1,2011-12-02T17:15:00Z,29.4012,-89.0355,10.0,19.573,11111222 
WAVCIS,ioos:station:WAVCIS:CSI16:1,2011-12-02T17:30:00Z,29.4012,-89.0355,10.0,19.627,11111222 
WAVCIS,ioos:station:WAVCIS:CSI16:1,2011-12-02T17:45:00Z,29.4012,-89.0355,10.0,19.62,11111222 
WAVCIS,ioos:station:WAVCIS:CSI16:1,2011-12-02T18:00:00Z,29.4012,-89.0355,10.0,19.736,11111222 
WAVCIS,ioos:station:WAVCIS:CSI16:1,2011-12-02T18:15:00Z,29.4012,-89.0355,10.0,19.756,11111222 
WAVCIS,ioos:station:WAVCIS:CSI16:1,2011-12-02T18:30:00Z,29.4012,-89.0355,10.0,19.756,11111222 
WAVCIS,ioos:station:WAVCIS:CSI16:1,2011-12-02T18:45:00Z,29.4012,-89.0355,10.0,19.774,11111222 
WAVCIS,ioos:station:WAVCIS:CSI16:1,2011-12-02T19:00:00Z,29.4012,-89.0355,10.0,19.771,11111222 
WAVCIS,ioos:station:WAVCIS:CSI16:1,2011-12-02T19:15:00Z,29.4012,-89.0355,10.0,19.78,11111222 
WAVCIS,ioos:station:WAVCIS:CSI16:1,2011-12-02T19:30:00Z,29.4012,-89.0355,10.0,19.779,11111222 
WAVCIS,ioos:station:WAVCIS:CSI16:1,2011-12-02T19:45:00Z,29.4012,-89.0355,10.0,19.772,11111222 
WAVCIS,ioos:station:WAVCIS:CSI16:1,2011-12-02T20:00:00Z,29.4012,-89.0355,10.0,19.777,11111222 
WAVCIS,ioos:station:WAVCIS:CSI16:1,2011-12-02T20:15:00Z,29.4012,-89.0355,10.0,19.698,11111222 
WAVCIS,ioos:station:WAVCIS:CSI16:1,2011-12-02T20:30:00Z,29.4012,-89.0355,10.0,19.465,11111222 
WAVCIS,ioos:station:WAVCIS:CSI16:1,2011-12-02T20:45:00Z,29.4012,-89.0355,10.0,19.535,11111222 
WAVCIS,ioos:station:WAVCIS:CSI16:1,2011-12-02T21:00:00Z,29.4012,-89.0355,10.0,19.553,11111222 
WAVCIS,ioos:station:WAVCIS:CSI16:1,2011-12-02T21:15:00Z,29.4012,-89.0355,10.0,19.443,11111222 
WAVCIS,ioos:station:WAVCIS:CSI16:1,2011-12-02T21:30:00Z,29.4012,-89.0355,10.0,19.445,11111222 
WAVCIS,ioos:station:WAVCIS:CSI16:1,2011-12-02T21:45:00Z,29.4012,-89.0355,10.0,19.479,11111222 
WAVCIS,ioos:station:WAVCIS:CSI16:1,2011-12-02T22:00:00Z,29.4012,-89.0355,10.0,19.513,11111222 
WAVCIS,ioos:station:WAVCIS:CSI16:1,2011-12-02T22:15:00Z,29.4012,-89.0355,10.0,19.548,11111222 
WAVCIS,ioos:station:WAVCIS:CSI16:1,2011-12-02T22:30:00Z,29.4012,-89.0355,10.0,19.549,11111222 
WAVCIS,ioos:station:WAVCIS:CSI16:1,2011-12-02T22:45:00Z,29.4012,-89.0355,10.0,19.545,11111222 
WAVCIS,ioos:station:WAVCIS:CSI16:1,2011-12-02T23:00:00Z,29.4012,-89.0355,10.0,19.572,11111222 
WAVCIS,ioos:station:WAVCIS:CSI16:1,2011-12-02T23:15:00Z,29.4012,-89.0355,10.0,19.553,11111222 
WAVCIS,ioos:station:WAVCIS:CSI16:1,2011-12-02T23:30:00Z,29.4012,-89.0355,10.0,19.551,11111222 
WAVCIS,ioos:station:WAVCIS:CSI16:1,2011-12-02T23:45:00Z,29.4012,-89.0355,10.0,19.562,11111222 
WAVCIS,ioos:station:WAVCIS:CSI16:1,2011-12-03T00:00:00Z,29.4012,-89.0355,10.0,19.557,11111222 
WAVCIS,ioos:station:WAVCIS:CSI16:1,2011-12-03T00:15:00Z,29.4012,-89.0355,10.0,19.579,11111222 
WAVCIS,ioos:station:WAVCIS:CSI16:1,2011-12-03T00:30:00Z,29.4012,-89.0355,10.0,19.576,11111222 
WAVCIS,ioos:station:WAVCIS:CSI16:1,2011-12-03T00:45:00Z,29.4012,-89.0355,10.0,19.568,11111222 
WAVCIS,ioos:station:WAVCIS:CSI16:1,2011-12-03T01:00:00Z,29.4012,-89.0355,10.0,19.576,11111222 
WAVCIS,ioos:station:WAVCIS:CSI16:1,2011-12-03T01:15:00Z,29.4012,-89.0355,10.0,19.574,11111222 
WAVCIS,ioos:station:WAVCIS:CSI16:1,2011-12-03T01:30:00Z,29.4012,-89.0355,10.0,19.57,11111222 
WAVCIS,ioos:station:WAVCIS:CSI16:1,2011-12-03T01:45:00Z,29.4012,-89.0355,10.0,19.549,11111222 
WAVCIS,ioos:station:WAVCIS:CSI16:1,2011-12-03T02:00:00Z,29.4012,-89.0355,10.0,19.55,11111222 
WAVCIS,ioos:station:WAVCIS:CSI16:1,2011-12-03T02:15:00Z,29.4012,-89.0355,10.0,19.557,11111222 
WAVCIS,ioos:station:WAVCIS:CSI16:1,2011-12-03T02:30:00Z,29.4012,-89.0355,10.0,19.583,11111222 
WAVCIS,ioos:station:WAVCIS:CSI16:1,2011-12-03T02:45:00Z,29.4012,-89.0355,10.0,19.601,11111222 
WAVCIS,ioos:station:WAVCIS:CSI16:1,2011-12-03T03:00:00Z,29.4012,-89.0355,10.0,19.599,11111222 
WAVCIS,ioos:station:WAVCIS:CSI16:1,2011-12-03T03:15:00Z,29.4012,-89.0355,10.0,19.6,11111222 
WAVCIS,ioos:station:WAVCIS:CSI16:1,2011-12-03T03:30:00Z,29.4012,-89.0355,10.0,19.598,11111222 
WAVCIS,ioos:station:WAVCIS:CSI16:1,2011-12-03T03:45:00Z,29.4012,-89.0355,10.0,19.588,11111222 
WAVCIS,ioos:station:WAVCIS:CSI16:1,2011-12-03T04:00:00Z,29.4012,-89.0355,10.0,19.574,11111222 
WAVCIS,ioos:station:WAVCIS:CSI16:1,2011-12-03T04:15:00Z,29.4012,-89.0355,10.0,19.558,11111222 
WAVCIS,ioos:station:WAVCIS:CSI16:1,2011-12-03T04:30:00Z,29.4012,-89.0355,10.0,19.537,11111222 
WAVCIS,ioos:station:WAVCIS:CSI16:1,2011-12-03T04:45:00Z,29.4012,-89.0355,10.0,19.524,11111222 
WAVCIS,ioos:station:WAVCIS:CSI16:1,2011-12-03T05:00:00Z,29.4012,-89.0355,10.0,19.482,11111222 
WAVCIS,ioos:station:WAVCIS:CSI16:1,2011-12-03T05:15:00Z,29.4012,-89.0355,10.0,19.427,11111222 
WAVCIS,ioos:station:WAVCIS:CSI16:1,2011-12-03T05:30:00Z,29.4012,-89.0355,10.0,19.344,11111222 
WAVCIS,ioos:station:WAVCIS:CSI16:1,2011-12-03T05:45:00Z,29.4012,-89.0355,10.0,19.284,11111222 
WAVCIS,ioos:station:WAVCIS:CSI16:1,2011-12-03T06:00:00Z,29.4012,-89.0355,10.0,19.247,11111222 
WAVCIS,ioos:station:WAVCIS:CSI16:1,2011-12-03T06:15:00Z,29.4012,-89.0355,10.0,19.22,11111222 
WAVCIS,ioos:station:WAVCIS:CSI16:1,2011-12-03T06:30:00Z,29.4012,-89.0355,10.0,19.193,11111222 
WAVCIS,ioos:station:WAVCIS:CSI16:1,2011-12-03T06:45:00Z,29.4012,-89.0355,10.0,19.207,11111222 
WAVCIS,ioos:station:WAVCIS:CSI16:1,2011-12-03T07:00:00Z,29.4012,-89.0355,10.0,19.206,11111222 
WAVCIS,ioos:station:WAVCIS:CSI16:1,2011-12-03T07:15:00Z,29.4012,-89.0355,10.0,19.191,11111222 
WAVCIS,ioos:station:WAVCIS:CSI16:1,2011-12-03T07:30:00Z,29.4012,-89.0355,10.0,19.166,11111222 
WAVCIS,ioos:station:WAVCIS:CSI16:1,2011-12-03T07:45:00Z,29.4012,-89.0355,10.0,19.11,11111222 
WAVCIS,ioos:station:WAVCIS:CSI16:1,2011-12-03T08:00:00Z,29.4012,-89.0355,10.0,19.056,11111222 
WAVCIS,ioos:station:WAVCIS:CSI16:1,2011-12-03T08:15:00Z,29.4012,-89.0355,10.0,18.97,11111222 
WAVCIS,ioos:station:WAVCIS:CSI16:1,2011-12-03T08:30:00Z,29.4012,-89.0355,10.0,18.84,11111222 
WAVCIS,ioos:station:WAVCIS:CSI16:1,2011-12-03T08:45:00Z,29.4012,-89.0355,10.0,17.841,11111222 
WAVCIS,ioos:station:WAVCIS:CSI16:1,2011-12-03T09:00:00Z,29.4012,-89.0355,10.0,17.653,11111222 
WAVCIS,ioos:station:WAVCIS:CSI16:1,2011-12-03T09:15:00Z,29.4012,-89.0355,10.0,17.829,11111222 
WAVCIS,ioos:station:WAVCIS:CSI16:1,2011-12-03T09:30:00Z,29.4012,-89.0355,10.0,17.736,11111222 
WAVCIS,ioos:station:WAVCIS:CSI16:1,2011-12-03T09:45:00Z,29.4012,-89.0355,10.0,17.714,11111222 
WAVCIS,ioos:station:WAVCIS:CSI16:1,2011-12-03T10:00:00Z,29.4012,-89.0355,10.0,17.709,11111222 
WAVCIS,ioos:station:WAVCIS:CSI16:1,2011-12-03T10:15:00Z,29.4012,-89.0355,10.0,17.799,11111222 
WAVCIS,ioos:station:WAVCIS:CSI16:1,2011-12-03T10:30:00Z,29.4012,-89.0355,10.0,17.7,11111222 
WAVCIS,ioos:station:WAVCIS:CSI16:1,2011-12-03T10:45:00Z,29.4012,-89.0355,10.0,17.768,11111222 
WAVCIS,ioos:station:WAVCIS:CSI16:1,2011-12-03T11:00:00Z,29.4012,-89.0355,10.0,17.757,11111222 
WAVCIS,ioos:station:WAVCIS:CSI16:1,2011-12-03T11:15:00Z,29.4012,-89.0355,10.0,17.764,11111222 
WAVCIS,ioos:station:WAVCIS:CSI16:1,2011-12-03T11:30:00Z,29.4012,-89.0355,10.0,17.763,11111222 
WAVCIS,ioos:station:WAVCIS:CSI16:1,2011-12-03T11:45:00Z,29.4012,-89.0355,10.0,17.864,11111222 
WAVCIS,ioos:station:WAVCIS:CSI16:1,2011-12-03T12:00:00Z,29.4012,-89.0355,10.0,17.818,11111222 
WAVCIS,ioos:station:WAVCIS:CSI16:1,2011-12-03T12:15:00Z,29.4012,-89.0355,10.0,17.826,11111222 
WAVCIS,ioos:station:WAVCIS:CSI16:1,2011-12-03T12:30:00Z,29.4012,-89.0355,10.0,17.128,11111222 
WAVCIS,ioos:station:WAVCIS:CSI16:1,2011-12-03T12:45:00Z,29.4012,-89.0355,10.0,16.534,11111222 
WAVCIS,ioos:station:WAVCIS:CSI16:1,2011-12-03T13:00:00Z,29.4012,-89.0355,10.0,17.404,11111222 
WAVCIS,ioos:station:WAVCIS:CSI16:1,2011-12-03T13:15:00Z,29.4012,-89.0355,10.0,16.875,11111222 
WAVCIS,ioos:station:WAVCIS:CSI16:1,2011-12-03T13:30:00Z,29.4012,-89.0355,10.0,16.732,11111222 
WAVCIS,ioos:station:WAVCIS:CSI16:1,2011-12-03T13:45:00Z,29.4012,-89.0355,10.0,17.171,11111222 
WAVCIS,ioos:station:WAVCIS:CSI16:1,2011-12-03T14:00:00Z,29.4012,-89.0355,10.0,17.178,11111222 
WAVCIS,ioos:station:WAVCIS:CSI16:1,2011-12-03T14:15:00Z,29.4012,-89.0355,10.0,17.293,11111222 
WAVCIS,ioos:station:WAVCIS:CSI16:1,2011-12-03T14:30:00Z,29.4012,-89.0355,10.0,17.06,11111222 
WAVCIS,ioos:station:WAVCIS:CSI16:1,2011-12-03T14:45:00Z,29.4012,-89.0355,10.0,17.288,11111222 